SCP
-0 -0 -0 -0 -0 -0 -0 -0 -0 -0 -0 -0 -0 -0 0 0 0 0 0 0 0 0 0 0 0 0 -0 0 0 -0 -0 -0 -0 -0 -0 -0 -0 -0 -0 -0 -0 -0 -0
-0 -0 -0 -0 -0 -0 -0 -0 -0 -0 -0 -0 -0 -0 0 0 0 0 0 0 0 0 0 0 0 0 0 0 0 0 0 -0 -0 -0 -0 -0 -0 -0 -0 -0 -0 -0 -0
-0 -0 -0 -0 -0 -0 -0 -0 -0 0 0 -0 -0 -0 -0 0 -0 -0 0 0 0 0 0 0 0 0 0 0 -0 0 0 -0 -0 -0 -0 -0 0 -0 -0 -0 -0 -0 -0
-0 0 0 0 0 0 -0 -0 -0 -0 0 0 0 0 0 -0 -0 -0 0 0 0 0 0 0 0 0 0 0 0 -0 -0 0 0 0 -0 -0 -0 -0 -0 -0 -0 -0 -0
-0 0 0 0 0 0 0 0 0 0 0 0 0 0 0 0 0 0 0 0 0 0 0 0 0 0 0 0 0 0 -0 0 0 0 0 0 -0 -0 0 -0 -0 -0 -0
0 0 0 0 0 0 0 0 0 0 0 0 0 -0 0 0 0 0 0 0 0 0 0 0 0 0 0 0 0 0 0 -0 0 0 0 0 0 -0 0 0 -0 -0 -0
0 0 0 0 0 0 0 0 0 0 0 0 0 0 0 0 0 0 0 0 0 0 0 0 0 0 0 0 0 0 0 0 0 0 0 0 0 0 0 0 0 0 0
0 0 0 0 0 0 0 0 0 0 0 0 0 0 0 0 0 0 0 0 0 0 0 0 0 0 0 0 0 0 0 1 1 0 0 0 0 0 0 0 0 0 0
0 0 0 0 0 0 0 0 0 0 0 0 0 0 0 0 0 0 0 0 0 0 0 0 0 0 0 0 0 0 0 0 0 0 0 1 1 0 0 0 0 0 0
0 0 0 0 0 0 0 0 0 0 0 0 0 0 0 0 0 0 0 0 0 0 0 0 0 0 0 0 0 0 0 0 0 0 0 0 0 1 1 0 0 0 0
0 0 0 0 0 0 0 0 0 0 0 0 0 0 0 0 0 0 0 0 0 0 0 0 0 0 0 0 0 0 0 0 0 0 0 0 0 0 0 0 0 0 0
0 0 0 0 0 0 0 0 0 0 0 0 0 0 0 0 0 0 0 0 0 0 0 0 0 0 0 0 0 0 0 0 0 0 0 0 0 0 0 0 0 1 0
0 0 0 0 0 0 0 0 0 0 0 0 0 0 0 0 0 0 0 0 0 0 0 0 0 0 0 0 0 0 0 0 0 0 0 0 0 0 0 0 0 0 1
0 0 0 0 0 0 0 0 0 0 0 0 0 0 0 0 0 0 0 0 0 0 0 0 0 0 0 0 0 0 0 0 0 0 0 0 0 0 0 0 0 0 0
0 0 0 0 0 0 0 0 0 0 0 0 0 0 0 0 0 0 0 0 0 0 0 0 0 0 0 0 0 0 0 0 0 0 0 0 0 0 0 0 0 0 0
0 0 0 0 0 0 0 0 0 0 0 0 0 0 0 0 0 0 0 0 0 0 0 0 0 0 0 0 0 0 0 0 0 0 0 0 0 0 0 0 0 0 0
0 0 0 0 0 0 0 0 0 0 0 0 0 0 0 0 0 0 0 0 0 0 0 0 0 0 0 0 0 0 0 0 0 0 0 0 0 0 0 0 0 0 0
0 0 0 0 0 0 0 0 0 0 0 0 0 0 0 0 0 0 0 0 0 0 0 0 0 0 0 0 0 0 0 0 0 0 0 0 0 0 0 -0 -0 -0 0
0 0 0 0 0 0 0 0 0 0 0 0 0 0 0 0 0 0 0 0 0 0 0 0 0 0 0 0 0 0 0 0 0 0 0 0 0 0 0 0 -0 -0 0
0 0 0 0 0 0 0 0 0 0 0 0 0 0 0 0 0 0 0 0 0 0 0 0 0 0 0 0 0 0 0 0 0 0 0 0 0 -0 -0 -0 0 0 0
0 0 0 0 0 0 0 0 0 0 0 0 0 0 0 0 0 0 0 0 0 0 0 0 0 0 0 0 0 0 0 0 0 0 0 0 0 0 -0 -0 -0 0 0
0 0 0 0 0 0 0 0 0 0 1 1 0 0 0 0 0 0 0 0 0 0 0 0 0 0 0 0 0 0 0 0 0 0 0 0 0 0 0 0 0 0 0
0 0 0 0 0 0 0 0 0 0 1 1 0 1 0 0 0 0 0 0 0 0 0 0 0 0 0 0 0 0 0 0 0 0 0 0 0 -0 0 0 0 0 0
0 0 0 0 -0 0 0 0 0 0 1 0 1 0 0 0 0 0 0 0 0 0 0 0 0 0 0 0 0 0 0 0 0 0 0 0 -0 -0 0 0 0 0 0
0 0 0 0 0 -0 0 0 0 0 0 0 0 0 0 0 0 0 0 0 0 0 0 0 0 0 0 0 0 0 0 0 0 0 0 0 0 0 0 0 0 0 0
0 0 0 0 0 0 0 0 0 0 0 0 0 0 0 0 0 0 0 0 0 0 0 0 0 0 0 0 0 0 0 0 0 0 0 -0 0 0 0 0 0 0 0
Wind_Speed_500mb
13 10 11 15 15 13 16 14 15 20 22 25 25 24 22 21 16 15 12 11 15 13 13 14 15 19 13 15 20 22 22 19 19 19 20 21 19 19 18 17 16 16 15
14 20 21 20 18 16 17 20 21 24 27 27 26 25 23 21 21 21 23 20 18 20 17 14 16 18 23 19 18 22 25 27 21 22 22 21 22 21 21 21 18 17 16
24 22 24 23 19 22 22 25 27 28 25 24 24 24 22 24 26 26 29 32 32 29 26 23 18 21 21 21 26 22 22 24 28 23 23 25 25 23 24 21 20 18 18
28 26 29 23 23 23 24 29 27 26 28 26 24 23 26 30 31 31 32 34 35 35 34 30 28 23 26 25 23 25 25 22 24 30 31 27 25 26 26 25 24 24 22
26 30 27 23 25 26 25 20 28 32 34 31 26 26 28 28 28 24 22 20 25 27 25 30 27 25 25 28 27 25 26 28 28 25 28 30 33 32 30 31 31 30 29
27 24 23 22 19 19 17 26 34 39 29 26 22 20 19 17 10 9 8 7 8 11 15 18 24 24 26 27 31 29 31 29 30 32 31 28 28 31 33 35 36 35 34
32 29 25 22 17 18 23 33 38 24 16 21 24 16 15 8 3 1 2 4 7 9 10 10 14 23 26 28 26 27 28 33 33 36 31 34 36 36 35 37 38 39 39
30 27 22 18 15 19 28 35 25 22 19 16 15 19 6 4 1 6 3 6 8 9 11 12 12 12 16 23 31 34 34 33 37 37 36 38 39 37 39 41 40 41 42
22 20 19 20 19 27 29 18 23 21 13 16 12 6 5 3 11 5 4 9 9 6 8 11 13 14 16 18 20 25 35 40 40 38 44 45 45 45 44 43 43 45 46
23 26 21 21 26 28 17 14 14 12 13 10 10 7 8 6 4 4 4 6 10 10 9 7 6 9 12 16 20 26 30 32 34 42 46 47 50 50 52 52 51 48 50
31 33 29 28 26 18 16 13 10 7 8 7 6 8 9 9 6 3 8 11 9 10 10 10 14 16 15 15 15 17 22 27 34 37 42 46 50 52 56 61 56 57 55
32 34 31 27 24 20 15 12 8 5 4 4 6 6 5 3 6 7 13 17 16 10 15 11 16 21 23 23 21 21 20 21 26 31 34 37 47 54 56 60 64 63 61
31 33 31 28 25 21 17 12 9 8 9 8 9 10 14 14 15 16 18 19 16 18 22 25 22 21 24 25 26 26 25 26 26 26 31 36 38 41 53 59 65 66 67
28 29 29 27 27 23 18 15 15 15 17 17 16 18 19 20 22 22 18 19 25 22 21 23 31 29 27 33 31 31 32 29 30 30 31 34 37 40 42 51 65 71 73
33 32 31 27 24 23 22 21 21 20 20 19 20 21 21 20 24 25 26 25 22 31 34 27 26 33 39 40 39 39 38 40 41 39 38 35 37 40 47 51 51 69 76
34 34 29 27 25 27 27 25 23 23 23 23 23 24 24 21 26 28 28 28 32 31 42 34 35 40 45 46 44 44 45 46 47 46 46 46 47 44 50 56 60 59 73
28 30 28 28 31 30 30 28 24 25 25 23 20 20 22 24 26 27 29 35 36 39 40 50 42 48 50 50 47 49 52 55 59 55 52 53 54 53 57 62 61 66 68
25 30 34 35 37 35 31 29 26 27 25 23 19 26 28 29 31 33 34 37 40 42 46 51 53 45 47 49 58 60 57 59 61 65 60 58 57 58 63 66 65 68 74
20 36 40 43 43 38 34 31 29 28 30 28 25 27 31 32 35 36 38 38 40 46 47 57 56 48 49 56 60 59 55 59 63 63 64 67 68 71 75 76 76 69 75
65 61 51 51 49 41 39 39 34 29 32 32 29 33 35 35 34 35 37 41 48 51 49 51 57 49 44 46 44 50 51 51 60 59 60 68 72 80 80 93 99 86 68
45 75 65 56 53 48 47 44 36 34 33 32 32 34 38 38 38 38 42 46 52 44 40 45 45 46 48 47 50 53 56 58 64 60 60 61 62 67 78 85 87 89 78
63 60 79 62 59 57 54 45 42 41 39 38 36 37 37 40 44 43 46 48 49 54 54 52 46 51 64 53 52 54 60 64 71 55 64 83 75 94 94 93 88 88 87
74 62 77 73 65 66 55 47 46 47 47 46 44 45 44 44 43 45 48 49 54 52 50 52 56 56 52 58 59 66 66 65 68 64 71 108 85 100 108 94 93 91 84
72 72 75 77 66 60 56 51 49 50 55 56 50 50 52 46 46 46 47 50 45 45 51 48 48 57 60 65 72 67 68 66 67 63 66 101 103 117 111 105 98 92 88
69 66 77 81 63 53 59 55 46 53 58 65 56 57 48 45 45 43 45 43 46 45 43 48 50 54 58 60 51 52 58 50 66 72 79 98 121 118 111 108 103 95 81
72 61 67 81 62 51 56 56 69 72 67 67 54 55 44 41 40 40 41 42 43 42 48 51 51 56 52 44 43 42 47 55 67 94 100 103 112 104 102 89 76 65 65
Wind_Direction_500mb
216 242 256 281 286 306 318 305 303 309 304 305 303 302 301 302 298 273 279 286 288 300 287 264 261 251 260 250 235 232 245 236 237 228 223 231 232 231 237 237 243 247 250
253 256 268 283 286 289 300 312 314 310 304 302 303 303 297 290 281 281 265 273 273 276 279 274 263 259 252 252 242 230 232 231 246 243 232 231 244 243 242 246 247 250 250
249 267 275 276 286 277 296 304 311 310 304 301 300 297 294 291 288 279 270 266 261 265 273 263 269 256 251 251 246 247 238 229 239 246 242 235 244 248 248 243 244 246 248
255 260 264 275 278 277 289 300 313 315 312 308 299 295 294 295 295 291 280 267 263 261 264 266 271 267 253 253 260 252 251 247 240 240 248 244 246 248 250 250 248 249 249
258 264 264 276 274 273 287 302 309 309 305 298 299 296 295 293 294 296 293 283 268 266 269 259 262 262 259 254 255 255 256 252 250 250 251 246 247 247 249 253 252 250 254
256 258 268 277 278 270 276 308 313 312 305 302 306 311 308 303 302 325 333 336 313 287 275 264 253 255 258 258 254 263 260 259 253 247 249 252 252 254 252 252 254 255 255
259 263 267 276 267 271 292 310 313 313 312 314 325 327 318 275 301 46 319 339 330 310 297 292 264 251 249 248 252 262 256 255 258 259 258 255 255 255 255 252 252 254 255
257 254 257 250 258 285 299 306 310 313 313 319 325 338 347 337 266 358 38 2 328 314 306 294 289 283 263 258 255 252 253 254 250 249 255 260 261 260 258 257 254 252 253
238 233 241 243 263 279 292 294 310 313 313 324 324 313 334 359 335 271 295 9 351 339 319 301 296 290 282 276 268 260 256 251 249 250 247 250 251 251 253 257 258 257 254
230 230 241 246 261 279 257 278 288 293 302 312 320 298 296 296 338 310 334 359 2 2 9 20 357 324 310 297 287 280 276 275 271 263 251 252 252 252 252 251 252 256 256
237 234 243 246 268 259 254 278 263 281 287 281 286 294 291 304 310 300 308 323 357 344 350 354 345 338 325 319 314 305 296 286 278 275 272 268 262 260 258 255 252 248 253
236 231 238 250 267 253 261 276 264 272 265 262 277 281 247 251 284 298 301 313 314 306 319 295 323 324 326 324 315 307 304 302 292 287 284 279 271 267 265 260 256 252 252
234 237 245 257 257 249 265 263 265 275 285 279 270 271 266 271 286 287 287 300 301 303 312 308 308 306 304 306 305 303 303 305 305 300 295 292 289 284 269 261 258 254 247
243 245 251 255 243 244 262 267 279 272 274 274 271 268 269 272 277 281 276 288 295 292 299 300 312 313 303 301 300 300 300 297 303 307 307 305 301 294 292 275 259 255 252
238 241 248 238 239 249 259 263 268 262 268 267 270 271 270 269 275 277 279 277 277 294 300 299 302 308 311 304 298 293 294 296 298 298 298 304 311 308 301 288 277 260 253
242 243 233 237 248 249 250 255 251 251 260 271 270 269 273 278 275 284 280 274 282 279 289 296 294 294 308 306 302 294 293 295 294 295 294 293 295 304 316 307 289 274 258
248 247 246 247 253 249 253 256 256 256 264 265 269 270 271 275 273 272 278 280 282 285 282 295 291 296 306 310 307 304 298 296 297 293 292 290 292 293 305 310 301 283 269
253 264 261 259 255 250 251 256 257 260 260 262 268 273 279 279 278 275 275 280 282 283 280 283 292 292 294 307 308 308 302 298 296 294 295 291 292 291 301 309 308 291 273
283 270 264 261 253 249 248 247 250 254 262 268 276 282 283 279 284 286 277 279 282 285 283 287 291 294 294 302 306 307 302 299 296 295 297 296 302 305 306 305 304 294 276
266 247 247 254 250 246 243 242 245 254 261 269 276 280 275 273 275 289 288 292 298 293 287 286 292 294 295 296 302 301 302 298 294 293 291 297 302 305 307 310 310 304 278
251 245 236 243 248 244 242 240 244 253 261 271 276 282 278 280 278 280 288 294 297 292 286 284 287 290 291 296 298 297 294 296 294 294 295 293 296 294 293 294 291 291 289
242 243 240 239 244 245 244 244 246 254 261 266 275 277 278 281 281 282 285 290 293 293 290 289 285 283 288 297 297 295 294 293 294 294 293 292 298 296 294 292 284 280 280
236 257 236 236 238 246 249 250 248 254 261 265 272 278 281 283 284 282 286 291 293 291 287 289 290 291 295 297 299 297 292 292 292 294 295 297 301 295 297 289 283 282 276
235 257 232 232 241 245 250 254 254 263 268 270 273 278 279 279 284 286 291 295 291 291 294 290 287 295 298 300 299 298 296 296 293 295 299 293 302 297 297 296 291 285 275
241 248 235 235 242 243 245 252 257 267 273 280 273 278 275 276 284 286 292 296 297 297 295 293 293 294 298 299 298 298 299 296 296 299 306 304 305 299 296 290 288 280 274
230 247 244 240 245 246 246 254 260 259 273 273 276 278 272 277 280 288 291 296 295 297 297 300 303 308 312 314 313 306 306 300 302 305 313 313 307 298 291 288 283 274 256
Wind_Speed_850mb
13 10 11 15 15 13 16 14 15 20 22 25 25 24 22 21 16 15 12 11 15 13 13 14 15 19 13 15 20 22 22 19 19 19 20 21 19 19 18 17 16 16 15
14 20 21 20 18 16 17 20 21 24 27 27 26 25 23 21 21 21 23 20 18 20 17 14 16 18 23 19 18 22 25 27 21 22 22 21 22 21 21 21 18 17 16
24 22 24 23 19 22 22 25 27 28 25 24 24 24 22 24 26 26 29 32 32 29 26 23 18 21 21 21 26 22 22 24 28 23 23 25 25 23 24 21 20 18 18
28 26 29 23 23 23 24 29 27 26 28 26 24 23 26 30 31 31 32 34 35 35 34 30 28 23 26 25 23 25 25 22 24 30 31 27 25 26 26 25 24 24 22
26 30 27 23 25 26 25 20 28 32 34 31 26 26 28 28 28 24 22 20 25 27 25 30 27 25 25 28 27 25 26 28 28 25 28 30 33 32 30 31 31 30 29
27 24 23 22 19 19 17 26 34 39 29 26 22 20 19 17 10 9 8 7 8 11 15 18 24 24 26 27 31 29 31 29 30 32 31 28 28 31 33 35 36 35 34
32 29 25 22 17 18 23 33 38 24 16 21 24 16 15 8 3 1 2 4 7 9 10 10 14 23 26 28 26 27 28 33 33 36 31 34 36 36 35 37 38 39 39
30 27 22 18 15 19 28 35 25 22 19 16 15 19 6 4 1 6 3 6 8 9 11 12 12 12 16 23 31 34 34 33 37 37 36 38 39 37 39 41 40 41 42
22 20 19 20 19 27 29 18 23 21 13 16 12 6 5 3 11 5 4 9 9 6 8 11 13 14 16 18 20 25 35 40 40 38 44 45 45 45 44 43 43 45 46
23 26 21 21 26 28 17 14 14 12 13 10 10 7 8 6 4 4 4 6 10 10 9 7 6 9 12 16 20 26 30 32 34 42 46 47 50 50 52 52 51 48 50
31 33 29 28 26 18 16 13 10 7 8 7 6 8 9 9 6 3 8 11 9 10 10 10 14 16 15 15 15 17 22 27 34 37 42 46 50 52 56 61 56 57 55
32 34 31 27 24 20 15 12 8 5 4 4 6 6 5 3 6 7 13 17 16 10 15 11 16 21 23 23 21 21 20 21 26 31 34 37 47 54 56 60 64 63 61
31 33 31 28 25 21 17 12 9 8 9 8 9 10 14 14 15 16 18 19 16 18 22 25 22 21 24 25 26 26 25 26 26 26 31 36 38 41 53 59 65 66 67
28 29 29 27 27 23 18 15 15 15 17 17 16 18 19 20 22 22 18 19 25 22 21 23 31 29 27 33 31 31 32 29 30 30 31 34 37 40 42 51 65 71 73
33 32 31 27 24 23 22 21 21 20 20 19 20 21 21 20 24 25 26 25 22 31 34 27 26 33 39 40 39 39 38 40 41 39 38 35 37 40 47 51 51 69 76
34 34 29 27 25 27 27 25 23 23 23 23 23 24 24 21 26 28 28 28 32 31 42 34 35 40 45 46 44 44 45 46 47 46 46 46 47 44 50 56 60 59 73
28 30 28 28 31 30 30 28 24 25 25 23 20 20 22 24 26 27 29 35 36 39 40 50 42 48 50 50 47 49 52 55 59 55 52 53 54 53 57 62 61 66 68
25 30 34 35 37 35 31 29 26 27 25 23 19 26 28 29 31 33 34 37 40 42 46 51 53 45 47 49 58 60 57 59 61 65 60 58 57 58 63 66 65 68 74
20 36 40 43 43 38 34 31 29 28 30 28 25 27 31 32 35 36 38 38 40 46 47 57 56 48 49 56 60 59 55 59 63 63 64 67 68 71 75 76 76 69 75
65 61 51 51 49 41 39 39 34 29 32 32 29 33 35 35 34 35 37 41 48 51 49 51 57 49 44 46 44 50 51 51 60 59 60 68 72 80 80 93 99 86 68
45 75 65 56 53 48 47 44 36 34 33 32 32 34 38 38 38 38 42 46 52 44 40 45 45 46 48 47 50 53 56 58 64 60 60 61 62 67 78 85 87 89 78
63 60 79 62 59 57 54 45 42 41 39 38 36 37 37 40 44 43 46 48 49 54 54 52 46 51 64 53 52 54 60 64 71 55 64 83 75 94 94 93 88 88 87
74 62 77 73 65 66 55 47 46 47 47 46 44 45 44 44 43 45 48 49 54 52 50 52 56 56 52 58 59 66 66 65 68 64 71 108 85 100 108 94 93 91 84
72 72 75 77 66 60 56 51 49 50 55 56 50 50 52 46 46 46 47 50 45 45 51 48 48 57 60 65 72 67 68 66 67 63 66 101 103 117 111 105 98 92 88
69 66 77 81 63 53 59 55 46 53 58 65 56 57 48 45 45 43 45 43 46 45 43 48 50 54 58 60 51 52 58 50 66 72 79 98 121 118 111 108 103 95 81
72 61 67 81 62 51 56 56 69 72 67 67 54 55 44 41 40 40 41 42 43 42 48 51 51 56 52 44 43 42 47 55 67 94 100 103 112 104 102 89 76 65 65
Wind_Direction_850mb
216 242 256 281 286 306 318 305 303 309 304 305 303 302 301 302 298 273 279 286 288 300 287 264 261 251 260 250 235 232 245 236 237 228 223 231 232 231 237 237 243 247 250
253 256 268 283 286 289 300 312 314 310 304 302 303 303 297 290 281 281 265 273 273 276 279 274 263 259 252 252 242 230 232 231 246 243 232 231 244 243 242 246 247 250 250
249 267 275 276 286 277 296 304 311 310 304 301 300 297 294 291 288 279 270 266 261 265 273 263 269 256 251 251 246 247 238 229 239 246 242 235 244 248 248 243 244 246 248
255 260 264 275 278 277 289 300 313 315 312 308 299 295 294 295 295 291 280 267 263 261 264 266 271 267 253 253 260 252 251 247 240 240 248 244 246 248 250 250 248 249 249
258 264 264 276 274 273 287 302 309 309 305 298 299 296 295 293 294 296 293 283 268 266 269 259 262 262 259 254 255 255 256 252 250 250 251 246 247 247 249 253 252 250 254
256 258 268 277 278 270 276 308 313 312 305 302 306 311 308 303 302 325 333 336 313 287 275 264 253 255 258 258 254 263 260 259 253 247 249 252 252 254 252 252 254 255 255
259 263 267 276 267 271 292 310 313 313 312 314 325 327 318 275 301 46 319 339 330 310 297 292 264 251 249 248 252 262 256 255 258 259 258 255 255 255 255 252 252 254 255
257 254 257 250 258 285 299 306 310 313 313 319 325 338 347 337 266 358 38 2 328 314 306 294 289 283 263 258 255 252 253 254 250 249 255 260 261 260 258 257 254 252 253
238 233 241 243 263 279 292 294 310 313 313 324 324 313 334 359 335 271 295 9 351 339 319 301 296 290 282 276 268 260 256 251 249 250 247 250 251 251 253 257 258 257 254
230 230 241 246 261 279 257 278 288 293 302 312 320 298 296 296 338 310 334 359 2 2 9 20 357 324 310 297 287 280 276 275 271 263 251 252 252 252 252 251 252 256 256
237 234 243 246 268 259 254 278 263 281 287 281 286 294 291 304 310 300 308 323 357 344 350 354 345 338 325 319 314 305 296 286 278 275 272 268 262 260 258 255 252 248 253
236 231 238 250 267 253 261 276 264 272 265 262 277 281 247 251 284 298 301 313 314 306 319 295 323 324 326 324 315 307 304 302 292 287 284 279 271 267 265 260 256 252 252
234 237 245 257 257 249 265 263 265 275 285 279 270 271 266 271 286 287 287 300 301 303 312 308 308 306 304 306 305 303 303 305 305 300 295 292 289 284 269 261 258 254 247
243 245 251 255 243 244 262 267 279 272 274 274 271 268 269 272 277 281 276 288 295 292 299 300 312 313 303 301 300 300 300 297 303 307 307 305 301 294 292 275 259 255 252
238 241 248 238 239 249 259 263 268 262 268 267 270 271 270 269 275 277 279 277 277 294 300 299 302 308 311 304 298 293 294 296 298 298 298 304 311 308 301 288 277 260 253
242 243 233 237 248 249 250 255 251 251 260 271 270 269 273 278 275 284 280 274 282 279 289 296 294 294 308 306 302 294 293 295 294 295 294 293 295 304 316 307 289 274 258
248 247 246 247 253 249 253 256 256 256 264 265 269 270 271 275 273 272 278 280 282 285 282 295 291 296 306 310 307 304 298 296 297 293 292 290 292 293 305 310 301 283 269
253 264 261 259 255 250 251 256 257 260 260 262 268 273 279 279 278 275 275 280 282 283 280 283 292 292 294 307 308 308 302 298 296 294 295 291 292 291 301 309 308 291 273
283 270 264 261 253 249 248 247 250 254 262 268 276 282 283 279 284 286 277 279 282 285 283 287 291 294 294 302 306 307 302 299 296 295 297 296 302 305 306 305 304 294 276
266 247 247 254 250 246 243 242 245 254 261 269 276 280 275 273 275 289 288 292 298 293 287 286 292 294 295 296 302 301 302 298 294 293 291 297 302 305 307 310 310 304 278
251 245 236 243 248 244 242 240 244 253 261 271 276 282 278 280 278 280 288 294 297 292 286 284 287 290 291 296 298 297 294 296 294 294 295 293 296 294 293 294 291 291 289
242 243 240 239 244 245 244 244 246 254 261 266 275 277 278 281 281 282 285 290 293 293 290 289 285 283 288 297 297 295 294 293 294 294 293 292 298 296 294 292 284 280 280
236 257 236 236 238 246 249 250 248 254 261 265 272 278 281 283 284 282 286 291 293 291 287 289 290 291 295 297 299 297 292 292 292 294 295 297 301 295 297 289 283 282 276
235 257 232 232 241 245 250 254 254 263 268 270 273 278 279 279 284 286 291 295 291 291 294 290 287 295 298 300 299 298 296 296 293 295 299 293 302 297 297 296 291 285 275
241 248 235 235 242 243 245 252 257 267 273 280 273 278 275 276 284 286 292 296 297 297 295 293 293 294 298 299 298 298 299 296 296 299 306 304 305 299 296 290 288 280 274
230 247 244 240 245 246 246 254 260 259 273 273 276 278 272 277 280 288 291 296 295 297 297 300 303 308 312 314 313 306 306 300 302 305 313 313 307 298 291 288 283 274 256